Date,TemperatureHighF,TemperatureAvgF,TemperatureLowF,DewpointHighF,DewpointAvgF,DewpointLowF,HumidityHigh,HumidityAvg,HumidityLow,PressureMaxIn,PressureMinIn,WindSpeedMaxMPH,WindSpeedAvgMPH,GustSpeedMaxMPH,PrecipitationSumIn
2013-1-1,25.3,9.4,-3.7,15.0,2.9,-9.4,84,75,59,30.70,30.44,10,0,10,0.00
2013-1-2,23.0,3.9,-8.2,9.2,-3.1,-14.5,82,72,55,30.85,30.57,6,0,6,0.00
2013-1-3,24.1,1.9,-12.2,7.5,-6.8,-19.0,79,67,46,30.98,30.72,9,0,9,0.00
2013-1-4,22.4,1.7,-9.1,4.9,-6.5,-15.9,79,69,45,30.89,30.60,6,0,6,0.00
2013-1-5,23.2,1.5,-11.2,6.1,-7.1,-18.0,79,68,46,30.96,30.73,10,0,10,0.00
2013-1-6,17.0,3.4,-10.5,5.5,-3.9,-17.0,78,71,59,30.90,30.52,5,0,5,0.00
2013-1-7,22.2,5.0,-6.3,9.3,-2.2,-12.4,81,72,55,30.59,30.41,12,1,12,0.00
2013-1-8,29.1,9.8,-1.8,12.8,1.9,-7.5,82,71,49,30.75,30.40,10,0,10,0.00
2013-1-9,32.9,12.0,-0.2,15.1,4.0,-5.7,83,71,47,30.83,30.38,9,0,9,0.00
2013-1-10,45.8,20.6,2.4,27.8,12.0,-2.6,85,71,39,30.37,29.49,29,2,29,0.01
2013-1-11,42.6,24.2,-1.6,29.0,9.8,-10.7,91,56,28,30.21,29.47,39,6,39,0.00
2013-1-12,21.6,1.1,-10.7,4.1,-8.2,-17.8,79,66,44,30.47,30.18,9,0,9,0.00
2013-1-13,19.2,3.4,-10.3,7.2,-3.6,-16.8,79,72,59,30.51,30.29,6,0,6,0.00
2013-1-14,16.1,-4.2,-15.3,0.2,-13.4,-22.8,76,65,37,30.82,30.48,7,0,7,0.00
2013-1-15,20.0,1.0,-15.8,-2.0,-10.5,-23.3,75,59,36,30.99,30.70,7,0,7,0.00
2013-1-16,24.7,4.8,-6.5,6.1,-4.7,-12.6,77,66,42,31.05,30.79,11,0,11,0.00
2013-1-17,26.0,6.0,-5.9,8.8,-2.7,-12.0,81,68,47,31.07,30.79,8,0,8,0.00
2013-1-18,27.8,6.0,-6.8,11.7,-2.0,-12.9,80,70,50,30.95,30.68,6,0,6,0.00
2013-1-19,30.4,8.5,-5.4,14.0,0.4,-11.6,80,70,49,30.95,30.69,9,0,9,0.00
2013-1-20,28.2,7.4,-5.2,13.0,-0.1,-11.4,81,72,51,30.90,30.58,7,0,7,0.00
2013-1-21,30.6,8.9,-4.3,13.7,0.9,-10.2,82,70,48,30.86,30.61,7,0,7,0.00
2013-1-22,31.6,9.2,-4.3,14.0,1.0,-10.2,82,70,46,30.89,30.61,6,0,6,0.00
2013-1-23,29.0,11.6,-3.5,13.2,3.7,-9.2,82,71,49,30.88,30.62,7,0,7,0.00
2013-1-24,32.2,24.0,11.2,23.1,16.2,6.1,82,73,59,30.65,30.46,5,0,5,0.00
2013-1-25,34.6,31.3,28.1,29.6,26.6,22.7,90,83,74,30.48,30.29,4,0,4,0.01
2013-1-26,39.2,34.5,31.6,37.0,32.3,29.5,93,92,89,30.29,29.86,5,0,5,0.17
2013-1-27,44.5,35.2,29.7,37.4,32.3,26.6,94,89,74,29.97,29.72,10,0,10,0.04
2013-1-28,38.6,32.9,22.9,35.0,26.2,12.2,93,77,48,29.92,29.71,18,2,18,0.01
2013-1-29,31.9,23.7,13.1,18.3,15.0,9.0,86,70,55,30.27,29.90,13,1,13,0.00
2013-1-30,33.7,22.4,9.3,19.5,14.8,5.2,87,74,50,30.38,30.27,10,0,10,0.00
2013-1-31,41.5,24.9,11.2,25.9,18.0,7.3,89,76,53,30.55,30.34,9,0,9,0.00
2013-2-1,42.8,25.3,13.3,26.5,18.5,9.6,89,77,50,30.52,30.35,10,0,10,0.01
2013-2-2,45.5,27.6,12.9,25.8,18.8,9.2,91,72,43,30.71,30.45,12,1,12,0.00
2013-2-3,39.2,28.2,18.9,27.8,21.9,15.4,91,78,53,30.45,30.21,7,0,7,0.00
2013-2-4,43.8,27.1,14.3,28.8,20.1,10.9,90,76,53,30.39,30.20,13,1,13,0.01
2013-2-5,48.9,30.5,16.4,27.4,20.6,13.2,89,70,35,30.36,30.03,12,1,12,0.00
2013-2-6,47.0,31.0,20.6,30.8,23.3,17.0,90,75,46,30.21,29.97,12,1,12,0.00
2013-2-7,50.4,30.3,16.2,27.7,20.1,12.7,91,70,29,30.35,30.07,13,1,13,0.01
2013-2-8,54.7,40.6,23.5,30.4,22.8,17.0,88,51,24,30.07,29.54,33,4,33,0.00
2013-2-9,40.6,35.0,29.7,30.6,25.4,17.4,90,70,44,29.76,29.59,17,2,17,0.00
2013-2-10,39.1,30.0,20.3,26.0,22.5,17.0,89,74,46,29.99,29.76,17,1,17,0.03
2013-2-11,35.9,27.7,14.0,25.7,21.7,10.1,89,79,51,30.28,29.92,12,1,12,0.05
2013-2-12,37.3,20.9,7.7,14.3,9.7,3.1,86,65,30,30.50,30.28,11,1,11,0.00
2013-2-13,40.6,25.9,11.1,23.3,15.7,6.9,87,68,37,30.52,30.24,12,1,12,0.00
2013-2-14,47.4,29.7,19.2,23.3,19.0,14.3,87,68,31,30.42,30.23,10,1,10,0.00
2013-2-15,48.3,27.8,13.8,22.6,15.9,10.1,89,66,25,30.60,30.37,11,1,11,0.01
2013-2-16,49.6,33.6,16.5,19.0,15.1,12.0,83,51,26,30.57,30.22,12,1,12,0.00
2013-2-17,51.3,33.8,16.1,23.3,16.6,6.4,86,54,25,30.22,29.73,18,2,18,0.00
2013-2-18,43.1,29.8,15.2,13.7,9.6,3.8,74,45,25,30.31,29.89,13,1,13,0.00
2013-2-19,50.4,31.5,13.3,14.1,8.2,-3.2,81,44,11,30.21,29.66,19,2,19,0.00
2013-2-20,49.6,38.4,21.9,28.0,17.2,10.8,70,43,26,29.69,29.47,15,2,15,0.00
2013-2-21,46.4,37.8,28.5,28.8,23.4,16.8,80,58,32,29.89,29.53,14,2,14,0.00
2013-2-22,39.1,30.3,16.7,27.6,20.5,10.0,88,69,36,30.20,29.85,17,2,17,0.04
2013-2-23,41.9,26.8,12.3,26.8,17.6,8.0,90,71,33,30.18,29.79,24,2,24,0.00
2013-2-24,35.0,26.6,17.7,25.2,16.6,8.2,83,66,50,30.25,29.86,15,2,15,0.06
2013-2-25,42.2,26.4,10.4,19.9,13.2,5.7,85,60,28,30.34,29.99,10,1,10,0.00
2013-2-26,40.8,30.8,17.2,25.1,17.3,8.9,89,60,28,30.34,29.90,21,3,21,0.05
2013-2-27,41.8,24.5,10.2,16.0,10.6,6.1,88,60,25,30.55,30.33,14,1,14,0.00
2013-2-28,46.0,30.0,14.4,15.1,12.0,8.4,83,51,26,30.64,30.39,15,2,15,0.00
2013-3-1,53.3,33.5,17.5,23.4,19.2,11.0,80,60,28,30.62,30.37,12,1,12,0.00
2013-3-2,59.2,39.1,22.9,25.2,22.2,17.0,81,54,25,30.60,30.13,13,2,13,0.00
2013-3-3,55.6,40.4,24.4,36.4,26.7,18.8,84,61,32,30.14,29.75,10,0,10,0.01
2013-3-4,53.8,38.0,17.7,41.2,24.7,7.2,93,65,18,30.30,29.70,25,3,25,0.01
2013-3-5,52.9,32.8,16.4,18.0,12.9,8.7,75,47,21,30.52,30.13,15,2,15,0.00
2013-3-6,63.4,38.3,17.0,22.6,17.7,11.5,83,49,20,30.20,29.77,18,2,18,0.00
2013-3-7,67.8,45.2,25.6,24.1,16.9,8.4,74,39,10,29.99,29.69,21,2,21,0.00
2013-3-8,55.3,44.0,29.5,39.0,26.0,11.9,89,54,22,29.84,29.56,16,2,16,0.01
2013-3-9,41.9,35.4,27.6,37.2,30.2,18.5,93,82,55,30.17,29.59,16,2,16,0.16
2013-3-10,51.9,35.6,20.8,23.5,19.3,15.7,84,56,26,30.34,30.15,11,1,11,0.00
2013-3-11,53.9,36.5,19.4,29.3,23.8,16.2,90,64,31,30.35,30.08,11,1,11,0.00
2013-3-12,60.7,42.3,27.8,33.2,27.5,23.0,86,61,27,30.27,30.09,15,1,15,0.00
2013-3-13,66.8,43.6,23.8,30.2,24.8,20.0,92,55,18,30.42,30.21,11,1,11,0.00
2013-3-14,70.3,46.3,26.1,29.4,24.9,21.1,88,50,18,30.40,30.12,15,1,15,0.00
2013-3-15,70.1,48.3,28.8,31.7,26.7,22.8,81,49,19,30.15,29.82,9,0,9,0.00
2013-3-16,64.8,52.3,31.6,38.8,31.9,25.3,80,47,27,29.83,29.59,18,2,18,0.00
2013-3-17,62.7,49.2,30.0,34.8,20.5,4.1,86,40,11,29.79,29.54,34,6,34,0.00
2013-3-18,58.0,43.8,23.8,20.9,11.6,5.5,62,31,13,29.98,29.77,25,3,25,0.00
2013-3-19,59.8,41.8,25.7,21.1,10.9,-1.7,59,33,9,30.19,29.88,13,1,13,0.00
2013-3-20,56.9,43.1,24.2,23.1,11.8,3.2,51,29,15,30.22,29.73,12,2,12,0.00
2013-3-21,55.7,43.4,30.0,41.1,26.0,5.2,90,56,15,29.91,29.62,25,3,25,0.25
2013-3-22,54.8,38.4,24.2,22.5,14.5,0.7,79,43,12,29.92,29.57,29,4,29,0.00
2013-3-23,40.6,30.8,18.1,13.3,4.9,-1.1,66,35,19,30.27,29.82,25,4,25,0.00
2013-3-24,43.1,26.3,10.5,13.7,5.7,0.3,79,47,19,30.37,30.17,18,2,18,0.00
2013-3-25,50.4,31.8,15.9,9.8,4.5,0.1,62,35,14,30.43,30.13,13,2,13,0.00
2013-3-26,64.7,42.7,21.0,20.2,12.0,5.3,60,32,14,30.21,29.75,13,2,13,0.00
2013-3-27,69.6,49.8,24.8,25.5,17.9,10.0,72,33,11,29.96,29.73,16,2,16,0.00
2013-3-28,72.0,54.8,35.3,23.2,18.0,12.3,46,26,12,29.95,29.76,16,2,16,0.00
2013-3-29,72.7,53.8,33.5,31.1,25.0,19.4,64,36,15,30.04,29.85,22,2,22,0.00
2013-3-30,72.7,52.8,31.6,32.2,27.0,21.4,76,42,16,30.11,29.86,18,3,18,0.00
2013-3-31,74.6,52.8,30.1,29.5,23.0,8.8,76,38,9,30.01,29.74,19,2,19,0.00
2013-4-1,71.1,56.3,40.5,40.6,28.3,15.1,59,36,14,29.84,29.57,34,4,34,0.01
2013-4-2,59.5,45.8,30.1,38.9,31.5,24.1,84,59,32,29.98,29.71,20,2,20,0.01
2013-4-3,69.8,48.3,30.4,35.5,28.0,19.3,88,53,18,30.10,29.91,14,1,14,0.00
2013-4-4,73.0,53.3,30.7,28.4,23.8,20.0,70,36,15,30.15,29.82,14,1,14,0.00
2013-4-5,74.7,55.6,42.5,46.1,29.4,21.2,88,42,15,29.82,29.57,33,2,33,0.06
2013-4-6,68.8,51.7,32.7,38.6,29.9,17.3,90,51,15,29.96,29.72,21,2,21,0.00
2013-4-7,71.1,54.6,36.3,36.2,27.1,15.3,81,42,13,29.80,29.47,28,2,28,0.00
2013-4-8,68.8,52.4,40.1,43.2,27.7,12.8,81,43,17,29.48,29.14,34,6,34,0.09
2013-4-9,46.4,36.1,26.7,33.1,23.4,12.4,87,61,41,30.12,29.28,17,3,17,0.00
2013-4-10,50.8,35.1,22.1,16.1,10.5,6.1,65,38,19,30.28,29.97,15,1,15,0.00
2013-4-11,58.9,41.0,24.5,32.5,25.7,14.7,72,56,34,30.06,29.75,12,1,12,0.00
2013-4-12,68.1,47.8,27.6,34.5,22.1,10.2,86,46,11,29.89,29.70,19,2,19,0.00
2013-4-13,72.3,49.9,24.7,44.3,23.2,13.4,86,41,15,29.82,29.21,44,4,44,0.08
2013-4-14,60.4,49.4,38.3,44.3,19.4,5.9,89,36,13,29.70,29.40,19,4,19,0.08
2013-4-15,47.9,42.7,39.8,37.9,31.9,14.5,89,69,28,29.66,29.35,15,2,15,0.37
2013-4-16,56.6,41.9,32.1,39.7,34.8,29.3,92,77,42,29.83,29.47,28,4,28,0.07
2013-4-17,37.9,32.5,24.4,30.1,24.1,15.4,92,73,44,30.21,29.75,16,1,16,0.24
2013-4-18,45.7,32.7,21.4,22.4,16.7,9.7,85,56,25,30.37,30.21,16,1,16,0.01
2013-4-19,55.4,40.1,20.2,30.1,20.5,15.1,89,50,25,30.38,29.93,13,2,13,0.00
2013-4-20,61.8,49.7,40.5,41.1,33.4,27.4,87,55,32,29.99,29.81,17,3,17,0.01
2013-4-21,68.4,50.8,29.5,38.5,27.8,11.1,93,51,12,30.11,29.78,19,3,19,0.01
2013-4-22,71.8,55.5,34.6,33.1,26.7,14.0,79,38,13,29.83,29.60,26,5,26,0.00
2013-4-23,55.0,45.3,30.4,25.5,13.3,1.2,56,30,12,30.11,29.74,21,4,21,0.00
2013-4-24,63.4,46.6,32.2,21.6,14.0,6.0,61,31,12,30.18,29.97,14,2,14,0.00
2013-4-25,72.3,53.9,28.5,20.3,15.5,10.6,68,26,10,30.06,29.67,21,4,21,0.00
2013-4-26,74.9,54.3,29.5,25.4,17.1,10.0,69,30,9,30.03,29.78,16,2,16,0.00
2013-4-27,78.1,57.3,32.2,26.1,18.7,7.3,64,27,8,30.15,29.82,16,2,16,0.00
2013-4-28,82.4,60.1,32.1,28.5,22.2,14.9,70,30,10,29.95,29.57,20,2,20,0.00
2013-4-29,83.8,63.0,36.5,33.9,25.8,17.3,75,31,9,29.72,29.35,23,3,23,0.00
2013-4-30,83.8,62.5,39.1,43.3,29.4,21.8,75,35,11,29.68,29.32,25,4,25,0.03
2013-5-1,59.5,47.8,31.8,41.1,23.0,1.1,92,48,10,30.39,29.68,22,4,22,0.11
2013-5-2,62.3,44.0,24.7,22.5,14.4,5.6,75,37,11,30.59,30.29,16,1,16,0.00
2013-5-3,72.7,50.1,26.4,27.7,16.1,7.8,70,32,10,30.36,29.76,17,3,17,0.00
2013-5-4,78.3,55.0,29.8,26.7,19.4,11.4,75,32,9,29.85,29.56,17,2,17,0.00
2013-5-5,77.9,66.6,47.6,29.9,20.2,9.2,46,19,8,29.74,29.54,20,4,20,0.00
2013-5-6,68.3,57.1,46.1,47.8,36.2,20.4,89,50,24,29.85,29.62,34,4,34,0.03
2013-5-7,64.2,51.7,39.2,48.9,42.8,36.1,92,73,43,29.93,29.76,22,2,22,0.18
2013-5-8,56.0,49.3,42.8,45.5,42.6,38.8,92,79,57,30.00,29.78,14,1,14,0.19
2013-5-9,68.9,56.4,45.4,45.3,40.8,32.6,88,60,29,29.98,29.82,29,2,29,0.03
2013-5-10,75.8,56.5,38.2,42.3,35.7,28.1,89,52,18,30.05,29.85,26,1,26,0.00
2013-5-11,79.8,62.3,40.8,39.2,32.7,22.4,82,40,13,30.20,29.91,14,2,14,0.00
2013-5-12,85.1,64.5,40.8,40.5,34.4,27.7,81,40,13,30.08,29.81,17,1,17,0.00
2013-5-13,89.3,67.7,45.2,43.3,35.8,25.3,75,37,10,30.01,29.72,15,2,15,0.00
2013-5-14,89.5,70.3,45.7,41.1,36.7,28.2,78,36,13,29.79,29.53,27,3,27,0.00
2013-5-15,84.7,72.7,61.2,43.2,39.3,33.0,46,31,16,29.67,29.44,18,3,18,0.00
2013-5-16,85.5,69.6,48.2,42.6,35.7,21.8,77,35,12,29.66,29.41,25,2,25,0.00
2013-5-17,84.0,71.0,53.1,36.6,25.1,13.7,51,21,8,29.57,29.42,25,4,25,0.00
2013-5-18,71.6,61.9,47.0,40.8,34.6,28.3,71,37,23,29.74,29.54,27,3,27,0.00
2013-5-19,70.6,56.0,38.8,41.2,33.2,25.0,87,48,20,29.83,29.66,19,2,19,0.00
2013-5-20,68.1,54.2,37.0,45.0,36.5,31.4,87,54,28,29.92,29.72,23,2,23,0.00
2013-5-21,78.6,59.9,37.3,43.3,34.4,22.2,91,46,13,29.96,29.58,17,1,17,0.00
2013-5-22,86.5,67.4,42.5,35.0,27.9,19.0,68,29,9,29.64,29.32,23,3,23,0.00
2013-5-23,88.4,76.3,58.9,34.5,18.2,3.5,38,12,5,29.54,29.32,33,6,33,0.00
2013-5-24,86.1,68.4,46.7,33.7,22.3,10.3,49,21,6,29.71,29.42,27,2,27,0.00
2013-5-25,87.8,66.0,36.8,36.2,25.1,11.9,69,29,6,29.77,29.53,28,1,28,0.00
2013-5-26,88.8,66.9,40.3,40.0,24.6,11.3,69,28,7,29.74,29.48,20,2,20,0.00
2013-5-27,85.3,67.4,39.9,32.6,23.1,8.7,63,23,9,29.68,29.43,20,2,20,0.00
2013-5-28,82.2,63.1,45.1,46.2,32.2,22.8,78,37,12,29.54,29.33,38,4,38,0.09
2013-5-29,71.5,58.5,42.2,48.8,35.6,20.2,93,52,17,29.60,29.48,23,3,23,0.01
2013-5-30,76.5,62.1,41.5,38.4,27.8,16.8,75,33,11,29.67,29.53,30,4,30,0.00
2013-5-31,78.8,64.3,49.8,35.8,22.0,6.2,57,24,7,29.87,29.65,26,4,26,0.00
2013-6-1,81.1,62.0,38.0,39.9,25.5,15.9,65,30,11,30.03,29.73,16,1,16,0.00
2013-6-2,92.7,68.5,40.3,36.6,27.2,17.7,68,28,8,29.86,29.40,17,2,17,0.00
2013-6-3,92.1,71.0,44.8,46.6,31.5,18.2,65,29,8,29.59,29.43,26,2,26,0.00
2013-6-4,92.1,71.9,43.8,35.5,31.2,21.2,71,28,9,29.70,29.47,23,3,23,0.00
2013-6-5,87.6,69.4,44.5,42.6,32.2,23.1,71,31,10,29.74,29.55,19,2,19,0.00
2013-6-6,90.7,70.0,47.3,44.9,32.7,25.2,60,30,11,29.82,29.52,14,2,14,0.00
2013-6-7,93.2,71.8,49.9,45.6,35.7,26.6,66,32,10,29.74,29.44,18,2,18,0.00
2013-6-8,97.1,74.9,50.7,43.5,36.6,26.9,71,32,9,29.60,29.42,16,2,16,0.00
2013-6-9,97.5,78.2,52.5,52.1,34.9,26.0,60,25,9,29.76,29.44,14,2,14,0.00
2013-6-10,99.4,77.8,51.4,39.0,32.0,14.8,57,24,7,29.65,29.37,23,2,23,0.00
2013-6-11,92.7,79.6,52.2,42.8,25.6,13.3,53,17,7,29.62,29.39,27,3,27,0.00
2013-6-12,95.9,78.8,55.6,36.0,26.3,16.8,45,17,7,29.77,29.53,18,3,18,0.00
2013-6-13,96.3,80.0,57.6,47.4,32.4,17.9,55,22,8,29.67,29.41,26,3,26,0.00
2013-6-14,93.6,75.1,46.0,36.3,21.5,3.1,55,17,6,29.69,29.44,22,2,22,0.00
2013-6-15,92.5,74.7,47.0,35.0,26.5,16.4,49,19,9,29.77,29.54,27,3,27,0.00
2013-6-16,90.3,76.2,58.9,49.1,38.6,26.8,55,28,14,29.74,29.55,19,2,19,0.00
2013-6-17,92.7,75.5,57.8,44.9,36.3,22.4,55,27,9,29.78,29.52,18,2,18,0.00
2013-6-18,96.3,78.1,51.7,40.3,27.6,7.4,54,20,6,29.70,29.37,18,3,25,0.00
2013-6-19,94.0,75.4,43.8,39.5,20.5,6.1,61,20,4,29.52,29.29,36,5,36,0.00
2013-6-20,93.4,75.1,46.4,31.8,21.0,10.9,56,16,6,29.60,29.34,17,3,17,0.00
2013-6-21,94.3,73.2,42.8,40.0,24.2,12.4,63,23,6,29.65,29.40,18,2,18,0.00
2013-6-22,92.1,72.7,45.4,40.7,26.9,14.0,62,24,6,29.58,29.43,25,3,25,0.00
2013-6-23,92.5,72.6,44.5,48.7,28.3,13.9,62,24,8,29.68,29.36,16,2,16,0.00
2013-6-24,89.5,73.6,48.9,40.9,27.9,15.8,59,23,8,29.55,29.37,27,3,27,0.00
2013-6-25,92.3,77.6,58.9,40.9,33.6,22.8,49,22,12,29.67,29.47,19,2,19,0.00
2013-6-26,98.7,76.5,53.3,51.9,38.5,31.3,65,31,10,29.80,29.56,14,2,14,0.00
2013-6-27,104.9,82.1,56.9,58.9,38.1,23.0,62,26,7,29.88,29.59,16,1,16,0.00
2013-6-28,106.0,81.3,55.7,48.5,38.5,24.4,60,28,6,29.87,29.58,25,2,25,0.00
2013-6-29,103.3,82.4,59.9,53.9,42.8,32.7,64,30,10,29.73,29.50,22,2,22,0.00
2013-6-30,102.3,80.6,58.0,52.9,43.0,32.2,64,31,11,29.74,29.47,17,2,17,0.00
2013-7-1,101.7,82.0,59.9,47.9,41.2,30.5,59,29,9,29.79,29.53,19,2,19,0.00
2013-7-2,100.2,80.2,59.2,54.7,41.7,30.3,60,31,10,29.75,29.50,17,1,17,0.00
2013-7-3,100.2,78.4,56.0,46.2,39.7,31.5,66,31,10,29.71,29.48,24,2,24,0.00
2013-7-4,95.6,81.2,64.3,57.4,44.8,38.3,56,30,14,29.61,29.39,15,1,15,0.00
2013-7-5,99.2,83.7,64.0,52.3,45.7,38.0,65,30,13,29.54,29.32,33,4,33,0.00
2013-7-6,95.9,80.2,63.7,57.0,47.6,39.0,66,35,17,29.60,29.43,29,2,29,0.00
2013-7-7,95.6,77.1,59.5,66.7,50.5,43.4,83,44,17,29.73,29.50,29,2,29,0.22
2013-7-8,97.1,78.8,57.8,58.1,48.7,33.2,89,44,12,29.83,29.60,13,2,17,0.00
2013-7-9,100.4,79.8,60.5,64.5,47.8,27.7,71,38,10,29.77,29.59,13,1,13,0.00
2013-7-10,102.8,83.6,58.3,51.2,39.8,25.7,69,27,7,29.77,29.44,13,2,16,0.00
2013-7-11,99.9,77.5,57.5,63.5,48.5,32.5,87,42,15,29.69,29.47,34,2,34,0.14
2013-7-12,93.2,77.0,61.6,63.3,57.5,45.1,91,57,22,29.73,29.51,29,2,29,0.00
2013-7-13,93.8,78.0,65.5,67.1,57.6,48.6,86,53,23,29.74,29.55,16,1,16,0.07
2013-7-14,95.9,78.7,65.2,58.6,53.0,41.5,71,45,16,29.79,29.53,27,2,27,0.00
2013-7-15,99.4,80.9,61.0,63.6,51.0,42.3,79,40,16,29.71,29.39,33,3,33,0.06
2013-7-16,92.9,77.6,60.2,65.1,57.5,48.7,93,55,25,29.71,29.55,15,1,15,0.00
2013-7-17,92.7,79.2,64.8,66.3,59.6,48.7,92,56,26,29.84,29.63,25,2,25,0.12
2013-7-18,97.5,78.6,62.6,63.9,56.0,47.3,84,50,20,29.86,29.57,29,3,29,0.19
2013-7-19,97.5,79.5,63.1,60.8,54.1,40.1,86,48,16,29.83,29.52,31,2,31,0.00
2013-7-20,99.7,79.7,59.3,64.9,51.0,36.2,83,42,12,29.66,29.39,15,1,15,0.00
2013-7-21,100.4,80.6,57.8,59.4,45.2,26.2,75,36,9,29.66,29.42,12,1,12,0.00
2013-7-22,102.5,81.4,62.0,56.6,46.4,30.1,72,34,10,29.69,29.43,13,0,13,0.00
2013-7-23,102.0,80.2,55.1,61.1,41.5,21.5,72,32,6,29.73,29.49,18,1,18,0.00
2013-7-24,92.1,76.6,61.6,58.1,48.2,40.2,67,41,17,29.74,29.56,23,3,27,0.00
2013-7-25,97.1,77.2,57.3,56.6,50.0,40.7,80,44,15,29.79,29.59,21,1,21,0.00
2013-7-26,99.9,81.6,62.9,57.3,45.0,34.2,58,31,11,29.87,29.56,16,2,16,0.00
2013-7-27,91.2,73.2,60.7,66.8,53.1,35.3,82,53,23,29.81,29.53,13,1,17,0.40
2013-7-28,84.9,71.5,63.1,64.4,59.8,53.6,90,70,38,29.71,29.52,20,1,20,0.33
2013-7-29,82.4,69.3,58.1,62.4,56.8,39.8,93,68,26,29.85,29.68,18,1,18,0.24
2013-7-30,92.5,72.3,54.2,57.0,50.8,35.5,93,54,14,29.99,29.77,12,1,12,0.00
2013-7-31,96.8,77.7,61.0,61.0,47.4,38.1,72,38,14,29.97,29.65,19,2,19,0.00
2013-8-1,74.7,66.7,57.5,61.5,55.4,45.3,83,68,36,29.97,29.66,21,2,21,0.09
2013-8-2,89.3,72.8,56.2,61.7,56.4,51.7,93,62,28,29.85,29.59,10,1,10,0.00
2013-8-3,89.9,77.5,62.1,63.0,53.3,42.1,81,46,25,29.80,29.64,26,2,26,0.00
2013-8-4,87.2,76.1,61.8,67.1,50.8,45.9,75,43,26,29.80,29.66,26,3,26,0.04
2013-8-5,88.8,75.7,63.2,57.4,53.1,44.2,78,48,26,29.81,29.61,14,1,14,0.00
2013-8-6,91.4,76.1,62.1,54.2,48.8,41.4,67,40,22,29.76,29.59,32,2,32,0.00
2013-8-8,72.3,70.4,68.4,56.6,49.2,44.4,63,47,38,29.78,29.72,14,3,14,0.03
2013-8-9,88.2,71.3,56.2,59.0,48.6,38.1,91,49,18,29.86,29.68,26,2,26,0.08
2013-8-10,80.9,68.1,53.5,54.2,47.0,38.5,92,51,24,29.99,29.79,33,4,33,0.00
2013-8-11,87.8,66.7,48.0,57.3,47.6,36.3,92,57,17,30.05,29.74,14,1,14,0.00
2013-8-12,88.0,70.3,53.3,54.0,45.9,38.1,78,46,19,29.92,29.73,31,2,31,0.00
2013-8-13,91.6,70.7,51.4,51.7,44.5,32.2,81,45,13,29.94,29.70,19,1,19,0.00
2013-8-14,90.7,70.7,59.0,51.8,40.3,30.8,54,35,15,29.92,29.67,15,2,15,0.00
2013-8-15,97.1,75.4,55.3,49.0,36.7,20.4,57,28,7,29.92,29.64,13,2,13,0.00
2013-8-16,98.2,73.0,50.7,58.9,39.5,28.3,68,36,9,29.91,29.63,14,1,14,0.00
2013-8-17,96.1,73.1,51.0,55.5,42.8,33.5,71,39,12,29.88,29.63,36,2,36,0.00
2013-8-18,95.1,75.5,52.6,55.8,47.0,39.2,82,42,15,29.91,29.64,21,1,21,0.00
2013-8-19,99.4,80.8,59.0,55.0,45.7,36.4,67,33,12,29.85,29.54,21,2,21,0.00
2013-8-20,89.5,76.2,56.2,60.6,48.2,40.5,76,41,22,29.81,29.58,22,1,22,0.00
2013-8-21,94.9,79.1,59.9,59.8,48.3,41.0,70,37,16,29.79,29.56,21,2,21,0.00
2013-8-22,91.4,76.7,63.1,57.7,50.7,46.1,73,43,23,29.81,29.64,14,1,14,0.00
2013-8-23,88.6,70.1,57.0,62.1,52.3,45.9,79,56,26,29.77,29.60,36,1,36,0.07
2013-8-24,86.5,73.5,60.2,57.9,51.5,41.4,83,50,21,29.81,29.64,18,2,18,0.00
2013-8-25,70.8,64.6,61.3,63.3,59.3,53.2,92,83,60,29.97,29.76,6,0,6,0.62
2013-8-26,81.1,68.4,61.5,63.9,61.4,58.6,94,80,48,30.00,29.81,9,0,9,0.01
2013-8-27,85.9,70.1,60.5,66.0,61.3,56.8,94,76,43,29.92,29.71,13,1,13,0.28
2013-8-28,92.3,72.8,56.3,60.5,55.1,47.5,94,60,23,29.87,29.67,13,1,13,0.01
2013-8-29,95.1,76.2,56.9,60.4,52.7,44.0,90,50,18,29.91,29.69,13,1,13,0.00
2013-8-30,95.9,79.0,62.4,60.3,52.3,43.4,79,44,17,29.85,29.61,14,1,18,0.00
2013-8-31,93.8,79.4,66.1,60.4,53.0,45.1,72,43,19,29.75,29.55,20,1,20,0.00
2013-9-1,92.1,76.6,62.1,64.2,54.5,49.6,78,49,26,29.75,29.55,18,1,18,0.03
2013-9-2,92.1,74.9,59.3,63.9,56.9,50.3,90,58,26,29.83,29.61,13,1,13,0.00
2013-9-3,94.9,75.4,56.9,60.1,53.3,45.6,88,52,20,29.87,29.65,12,0,12,0.00
2013-9-4,96.1,78.5,62.0,65.1,53.3,42.6,81,48,17,29.86,29.64,18,1,18,0.00
2013-9-5,95.9,78.5,62.9,65.7,53.1,44.2,76,45,21,29.83,29.64,27,2,27,0.00
2013-9-6,95.6,79.1,62.7,59.5,50.5,38.0,72,40,16,29.87,29.58,14,1,14,0.00
2013-9-7,83.4,71.5,62.7,51.6,48.1,40.2,64,47,22,29.69,29.57,21,2,21,0.00
2013-9-8,85.7,69.8,59.8,64.1,55.3,48.7,92,64,30,29.75,29.60,20,1,20,0.08
2013-9-9,63.7,61.2,58.6,61.0,58.7,55.4,93,91,87,29.81,29.64,13,0,13,0.75
2013-9-10,65.0,62.3,59.9,61.5,59.4,57.6,94,90,80,29.84,29.75,7,0,7,0.28
2013-9-11,76.8,65.8,59.9,62.6,60.0,57.4,94,83,55,29.87,29.74,11,0,11,0.09
2013-9-12,81.4,68.4,59.2,61.3,56.8,51.6,89,68,39,29.88,29.68,21,2,21,0.07
2013-9-13,80.5,66.9,56.2,61.0,55.9,50.1,91,70,39,29.77,29.56,21,1,21,0.01
2013-9-14,72.0,62.9,58.3,60.1,56.8,52.7,92,81,53,29.75,29.59,16,1,16,0.23
2013-9-15,77.9,62.9,53.1,60.4,54.5,51.0,95,76,43,29.86,29.73,10,0,10,0.03
2013-9-16,83.2,66.4,52.9,59.5,53.7,49.8,92,67,34,29.93,29.70,11,1,11,0.00
2013-9-17,76.7,64.7,51.1,59.3,53.8,47.9,92,70,41,29.84,29.46,18,1,18,0.00
2013-9-18,83.8,69.5,54.2,61.1,52.6,41.2,94,60,23,29.63,29.45,22,2,22,0.05
2013-9-19,78.8,60.8,45.7,52.1,40.4,22.6,93,56,14,29.87,29.60,13,1,13,0.00
2013-9-20,81.6,60.9,44.2,47.6,36.5,29.0,80,45,17,30.02,29.69,17,2,17,0.00
2013-9-21,87.0,66.2,47.4,47.9,42.9,35.6,81,49,18,29.86,29.42,22,2,22,0.00
2013-9-22,73.3,62.8,50.8,51.2,47.2,37.0,91,60,30,29.57,29.31,35,5,35,0.44
2013-9-23,72.1,56.0,44.1,50.8,43.8,33.6,94,69,27,29.98,29.57,18,1,18,0.01
2013-9-24,76.7,56.0,39.9,48.3,40.1,30.7,93,62,20,30.08,29.66,16,2,16,0.01
2013-9-25,81.2,63.5,42.8,43.8,34.0,23.0,85,43,12,29.66,29.19,41,4,41,0.00
2013-9-26,78.6,70.6,48.9,40.5,29.2,21.4,61,23,13,29.46,29.21,27,7,30,0.00
2013-9-27,60.1,51.4,37.8,47.8,38.1,24.1,88,64,27,30.07,29.38,24,3,24,0.10
2013-9-28,63.5,45.6,32.5,37.5,33.3,26.9,92,67,26,30.28,30.06,12,1,12,0.01
2013-9-29,72.5,49.7,32.2,42.6,34.4,29.5,93,63,21,30.25,29.89,10,1,10,0.00
2013-9-30,78.6,54.5,35.9,43.7,36.4,28.3,92,59,18,29.99,29.70,9,0,9,0.00
2013-10-1,80.5,50.9,37.9,45.0,37.3,31.3,89,65,17,29.96,29.69,11,0,11,0.00
2013-10-2,78.6,56.3,38.9,44.6,35.4,28.5,86,53,18,29.89,29.60,13,0,13,0.00
2013-10-3,76.0,54.1,37.5,42.1,35.3,30.2,89,56,21,29.86,29.40,33,5,33,0.27
2013-10-4,53.2,40.1,31.3,36.9,30.9,24.0,94,72,37,30.37,29.82,17,2,17,0.05
2013-10-5,56.9,41.9,31.3,33.8,29.1,23.3,90,65,30,30.46,30.27,11,0,11,0.00
2013-10-6,66.6,45.6,31.8,38.9,31.2,26.1,89,62,26,30.47,30.12,14,1,14,0.00
2013-10-7,69.3,49.5,32.2,43.9,35.0,29.6,93,63,26,30.24,29.85,13,1,13,0.00
2013-10-8,72.5,51.1,36.2,46.2,37.7,31.7,92,65,23,29.87,29.61,12,0,12,0.00
2013-10-9,70.6,58.9,41.5,41.3,31.6,21.2,79,40,16,29.71,29.47,24,2,24,0.00
2013-10-10,65.0,50.1,41.5,45.8,41.7,28.1,92,75,27,29.78,29.47,30,2,30,0.32
2013-10-11,60.7,49.6,37.5,45.1,40.6,34.3,94,73,44,30.01,29.78,6,0,9,0.01
2013-10-12,64.3,46.8,35.9,42.0,37.3,33.3,94,74,33,30.08,29.87,13,1,13,0.01
2013-10-13,73.0,54.5,38.0,43.2,36.7,30.2,93,55,23,29.94,29.62,27,3,30,0.04
2013-10-14,57.2,47.1,36.9,43.5,39.4,34.3,93,76,43,30.07,29.72,16,2,22,0.05
2013-10-15,54.5,42.2,31.2,41.1,35.5,28.9,94,79,42,30.15,30.00,16,0,16,0.03
2013-10-16,57.2,39.4,27.2,34.3,28.2,21.2,93,70,27,30.27,30.08,11,1,13,0.01
2013-10-17,59.3,41.1,27.5,33.9,29.0,23.8,92,67,26,30.23,29.93,9,1,12,0.01
2013-10-18,57.5,40.5,27.9,35.1,25.5,17.3,91,62,21,30.25,29.93,10,0,11,0.00
2013-10-19,61.2,40.7,26.6,31.0,24.9,20.8,88,59,25,30.31,30.01,10,1,11,0.00
2013-10-20,61.5,42.0,26.9,34.8,29.2,24.1,91,66,30,30.09,29.89,6,0,7,0.00
2013-10-21,64.7,44.0,27.3,37.2,28.0,22.8,93,61,22,30.23,29.93,12,1,13,0.00
2013-10-22,68.4,45.3,29.7,31.2,27.6,24.1,84,56,20,30.31,30.02,14,1,14,0.00
2013-10-23,69.9,45.0,29.3,34.4,28.6,25.6,90,60,19,30.24,29.94,12,1,13,0.00
2013-10-24,70.6,47.5,30.6,35.7,30.0,25.4,86,56,21,30.23,29.90,13,1,13,0.00
2013-10-25,68.3,47.3,30.6,39.1,32.8,27.3,91,63,26,30.22,30.01,11,0,11,0.00
2013-10-26,71.6,45.8,30.6,36.9,32.1,27.8,92,65,21,30.33,30.07,9,0,12,0.00
2013-10-27,67.3,45.9,29.3,36.7,31.1,26.3,90,62,27,30.17,29.59,8,0,9,0.00
2013-10-28,71.1,57.9,38.3,34.1,25.2,16.4,76,34,13,29.72,29.39,30,5,32,0.00
2013-10-29,61.6,47.8,39.2,41.5,35.9,22.3,91,68,22,29.85,29.47,30,4,37,0.56
2013-10-30,46.2,40.1,33.7,40.2,36.2,30.8,93,86,67,30.00,29.82,18,1,18,0.03
2013-10-31,49.8,38.4,30.7,40.3,34.2,28.6,94,86,56,30.14,29.98,6,0,6,0.01
2013-11-1,58.9,39.1,27.3,40.6,30.8,25.3,94,76,30,30.34,30.10,6,0,7,0.00
2013-11-2,58.6,41.1,28.7,33.9,29.5,25.8,93,67,33,30.32,29.88,14,1,16,0.01
2013-11-3,64.7,43.4,28.1,36.7,27.0,8.0,93,59,18,29.95,29.53,21,3,25,0.00
2013-11-4,44.6,35.6,23.3,31.1,21.8,15.3,88,59,35,30.01,29.88,13,2,15,0.00
2013-11-5,46.1,34.1,21.1,31.2,19.3,9.2,89,60,23,30.41,29.99,12,1,14,0.00
2013-11-6,49.1,31.2,18.4,20.3,17.0,13.0,85,59,27,30.60,30.35,9,1,11,0.00
2013-11-7,54.5,37.2,20.5,28.9,22.6,16.7,88,59,28,30.65,30.16,11,1,16,0.00
2013-11-8,61.0,37.3,23.2,30.6,24.4,19.7,91,65,24,30.24,29.99,10,0,12,0.00
2013-11-9,61.2,38.6,22.7,31.6,24.6,19.7,91,63,24,30.33,30.08,8,0,10,0.00
2013-11-10,63.7,40.0,25.1,28.7,24.1,20.9,87,59,23,30.38,30.15,12,1,12,0.00
2013-11-11,64.5,39.0,22.2,27.7,23.9,18.9,89,61,22,30.46,30.25,13,1,14,0.00
2013-11-12,65.0,40.6,24.2,28.3,23.6,20.6,89,57,20,30.59,30.34,14,1,16,0.00
2013-11-13,54.2,39.7,23.8,29.8,24.2,19.9,87,58,28,30.47,30.07,10,0,12,0.00
2013-11-14,59.2,39.8,25.8,33.1,25.4,19.9,91,62,23,30.23,29.76,8,0,9,0.00
2013-11-15,60.5,40.2,23.6,35.0,25.8,18.8,85,60,27,29.83,29.47,22,2,25,0.01
2013-11-16,51.3,36.6,26.4,37.1,31.6,22.8,92,83,47,29.69,29.51,17,1,25,0.05
2013-11-17,56.9,36.6,25.3,40.2,29.6,22.3,94,79,36,30.20,29.68,6,0,7,0.01
2013-11-18,58.9,35.6,22.5,30.3,24.9,19.7,94,70,29,30.37,30.08,12,1,16,0.00
2013-11-19,47.0,36.3,23.5,34.8,27.9,19.9,90,73,49,30.12,29.88,6,0,10,0.01
2013-11-20,50.2,39.8,24.7,38.7,33.1,21.9,93,78,56,29.99,29.76,3,0,4,0.06
2013-11-21,48.3,41.2,34.9,43.1,36.7,24.1,94,84,62,30.23,29.81,17,1,18,0.22
2013-11-22,38.6,34.3,30.9,30.7,25.7,20.3,92,72,56,30.36,30.22,15,2,17,0.04
2013-11-23,38.3,35.3,32.4,34.8,32.7,30.3,93,90,82,30.33,30.16,10,0,11,0.73
2013-11-24,39.9,36.3,34.0,37.5,34.2,32.3,94,92,87,30.20,30.06,8,0,9,0.03
2013-11-25,48.2,33.0,23.3,36.5,27.5,20.8,94,82,42,30.45,30.12,7,0,8,0.01
2013-11-26,48.9,30.4,21.0,30.9,23.7,18.3,92,79,40,30.60,30.38,11,1,13,0.00
2013-11-27,47.4,30.4,19.4,31.5,23.4,16.7,92,77,48,30.53,30.23,9,0,9,0.01
2013-11-28,43.2,34.1,23.6,32.6,29.2,21.1,92,82,64,30.35,30.22,12,1,12,0.00
2013-11-29,38.0,35.5,33.4,32.0,30.3,29.0,90,81,72,30.44,30.29,7,0,8,0.00
2013-11-30,39.1,36.5,34.4,29.7,28.8,27.4,80,74,66,30.45,30.33,8,0,11,0.00
2013-12-1,38.3,36.3,34.7,29.7,28.5,27.1,79,73,68,30.46,30.31,9,1,9,0.00
2013-12-2,35.8,34.1,32.5,32.0,30.4,28.3,92,86,74,30.32,29.83,10,0,10,0.01
2013-12-3,40.6,35.2,28.4,34.3,29.9,24.8,90,81,69,29.83,29.42,14,1,15,0.10
2013-12-4,30.9,18.7,-0.6,28.3,14.1,-5.8,93,82,66,30.34,29.42,16,2,16,0.00
2013-12-5,18.6,7.4,-3.5,8.1,-0.8,-9.1,80,69,55,30.39,30.20,9,1,10,0.01
2013-12-6,18.3,5.0,-3.9,8.7,-1.0,-9.3,83,76,62,30.56,30.34,7,0,9,0.00
2013-12-7,25.0,19.1,8.4,19.2,13.3,3.8,89,78,66,30.39,29.80,9,1,11,0.00
2013-12-8,24.8,15.1,-2.4,19.2,8.8,-7.8,89,76,54,30.37,29.80,12,1,15,0.00
2013-12-9,19.5,4.2,-6.5,6.7,-3.2,-12.6,81,72,42,30.99,30.34,8,0,10,0.00
2013-12-10,16.7,3.0,-9.6,4.5,-4.6,-16.2,80,71,54,31.02,30.73,5,0,6,0.00
2013-12-11,22.5,7.6,-2.2,9.6,0.5,-7.6,82,73,55,31.01,30.69,4,0,5,0.00
2013-12-12,23.3,5.6,-4.8,11.5,-0.9,-10.4,81,74,59,31.03,30.57,7,0,8,0.00
2013-12-13,19.5,6.8,-3.1,10.2,0.9,-8.5,83,77,65,30.66,30.45,8,0,10,0.00
2013-12-14,27.6,10.1,-1.8,16.0,3.7,-7.3,85,76,59,30.92,30.66,6,0,6,0.00
2013-12-15,31.0,14.0,4.7,19.2,7.7,0.2,84,77,57,30.90,30.66,6,0,6,0.00
2013-12-16,30.7,13.1,3.4,19.6,7.2,-1.4,84,78,60,30.89,30.66,6,0,6,0.00
2013-12-17,31.8,14.4,4.7,21.3,9.0,0.2,86,79,62,30.93,30.59,6,0,6,0.00
2013-12-18,27.6,18.6,5.6,21.3,13.4,1.3,86,80,68,30.59,30.05,7,0,7,0.00
2013-12-19,35.0,25.3,15.6,24.8,20.2,11.9,89,81,64,30.06,29.76,6,0,7,0.01
2013-12-20,36.2,25.2,11.7,27.4,20.8,8.1,89,83,69,29.95,29.82,6,0,7,0.00
2013-12-21,30.0,20.7,7.4,26.6,17.3,3.3,90,86,81,30.22,29.81,4,0,4,0.03
2013-12-22,31.0,17.6,5.8,21.8,13.0,1.2,88,82,66,30.52,30.20,7,0,9,0.00
2013-12-23,36.9,20.9,9.2,22.9,14.9,5.1,87,78,54,30.73,30.50,7,0,9,0.00
2013-12-24,37.2,19.0,7.6,24.8,13.7,3.4,89,80,57,30.69,30.43,7,0,10,0.00
2013-12-25,38.2,19.7,5.4,19.5,10.3,0.8,89,69,40,30.81,30.55,12,1,12,0.00
2013-12-26,35.8,16.4,4.1,18.1,7.9,-0.4,85,71,37,30.84,30.60,7,0,10,0.00
2013-12-27,38.5,17.2,5.4,20.1,9.5,0.8,85,73,39,30.81,30.43,6,0,9,0.00
2013-12-28,29.8,16.4,7.4,19.8,11.0,3.1,87,79,63,30.46,30.24,6,0,7,0.00
2013-12-29,39.8,19.5,6.3,21.9,11.8,2.0,88,74,40,30.56,30.27,5,0,6,0.00
2013-12-30,37.2,17.3,5.6,20.8,10.5,1.0,86,76,49,30.71,30.42,6,0,6,0.00
2013-12-31,38.8,25.5,10.0,23.3,18.5,6.1,87,76,48,30.58,30.25,5,0,6,0.01
2014-1-1,40.1,21.6,10.5,25.2,15.6,6.6,89,79,49,30.60,30.26,9,0,9,0.00
2014-1-2,40.6,20.7,7.4,21.8,11.9,3.1,88,71,39,30.69,30.40,9,0,11,0.00